STARLINK-35333 (66182 NORAD) Tracking and Keplerian Element Data

This shows tracking and keplerian element data for the satellite.

Feedback or suggestion? Click here.




ElementValue
Catalog66182
NameSTARLINK-35333
Epoch Orbit845
Epoch Day354.0251804
Epoch Year2025
RAAN255.5101
Inclination53.159
Eccentricity0.0001348
Argument of Perigee89.6344
Mean Anonmoly270.4812
Mean Motion15.30198623
Decay Rate8.813E-05
L11 66182U 25243F 25354.02518040 .00008813 00000+0 30934-3 0 9999
L22 66182 53.1590 255.5101 0001348 89.6344 270.4812 15.30198623 8456



Live tracking and technical data element details for STARLINK-35333 (NORAD 66182). STARLINK-35333 can be tracked NOW for your location showing map with azimuth and elevation plus other details from your city location.







IsCatalogInMostPopularTable: catalog: 66182, numindb: 5
Update: records affected: 1



GetName: 66182 STARLINK-35333

Hit Count: updated at: Sun, 08 Feb 2026 08:28:21 GMT